Tracking 19638 objects as of 19-May-2019
HD Live streaming from Space Station
objects crossing your sky now

CLUSTER II-FM7

Track CLUSTER II-FM7 now!
CLUSTER II-FM7 is classified as:


NORAD ID: 26411
Int'l Code: 2000-041B
Perigee: 28,947.6 km
Apogee: 103,792.8 km
Inclination: 130.6 °
Period: 3,254.1 minutes
Semi major axis: 72741 km
RCS: 1.5887 m2 (large)
Launch date: July 16, 2000
Source: European Space Agency (ESA)
Launch site: TYURATAM MISSILE AND SPACE COMPLEX (TTMTR)
aabbcc
Your satellite tracking list
Your tracking list is empty




NASA's NSSDC Master Catalog

Two Line Element Set (TLE):
1 26411U 00041B   19138.53044812  .00000000  00000-0  00000+0 0  9997
2 26411 130.6390 339.7989 5144624 179.4362   0.5379  0.44251971 20306
Source of the keplerian elements: AFSPC